• In Hungary
  • List of Countries
  • For 7 days
  • Water Temperature
  • Satellite Maps
  • Weather Map
  • News
  • Weather Widgets
  • user-avatar
    Login

    Hourly Weather Zinder

    Today, 23 September, Sunday

    Time Temperature Precipitation Wind Pressure Humidity
    00:00 +34°C° 0 mm 1 mps 717 mmHg 32%
    01:00 +33°C° 0 mm 1 mps 718 mmHg 33%
    02:00 +33°C° 0 mm 1 mps 717 mmHg 35%
    03:00 +32°C° 0 mm 1 mps 717 mmHg 36%
    04:00 +32°C° 0 mm 1 mps 717 mmHg 37%
    05:00 +31°C° 0 mm 2 mps 717 mmHg 39%
    06:00 +31°C° 0 mm 2 mps 717 mmHg 41%
    07:00 +31°C° 0 mm 3 mps 718 mmHg 41%
    08:00 +34°C° 0 mm 3 mps 718 mmHg 38%
    09:00 +35°C° 0 mm 3 mps 718 mmHg 35%
    10:00 +37°C° 0 mm 3 mps 718 mmHg 32%
    11:00 +39°C° 0 mm 3 mps 718 mmHg 26%
    12:00 +41°C° 0 mm 4 mps 718 mmHg 21%
    13:00 +43°C° 0 mm 4 mps 718 mmHg 15%
    14:00 +43°C° 0 mm 5 mps 717 mmHg 14%
    15:00 +45°C° 0 mm 5 mps 716 mmHg 13%
    16:00 +45°C° 0 mm 6 mps 716 mmHg 12%
    17:00 +43°C° 0 mm 5 mps 716 mmHg 13%
    18:00 +42°C° 0 mm 4 mps 716 mmHg 14%
    19:00 +42°C° 0 mm 3 mps 716 mmHg 15%
    20:00 +40°C° 0 mm 3 mps 716 mmHg 15%
    21:00 +40°C° 0 mm 3 mps 717 mmHg 15%
    22:00 +39°C° 0 mm 3 mps 717 mmHg 16%
    23:00 +38°C° 0 mm 3 mps 717 mmHg 17%

    Tomorrow, 24 September, Monday

    Time Temperature Precipitation Wind Pressure Humidity
    00:00 +37°C° 0 mm 3 mps 717 mmHg 18%
    01:00 +37°C° 0 mm 3 mps 717 mmHg 19%
    02:00 +36°C° 0 mm 2 mps 716 mmHg 21%
    03:00 +35°C° 0 mm 2 mps 716 mmHg 23%
    04:00 +34°C° 0 mm 2 mps 716 mmHg 24%
    05:00 +34°C° 0 mm 2 mps 716 mmHg 25%
    06:00 +34°C° 0 mm 2 mps 717 mmHg 27%
    07:00 +32°C° 0 mm 2 mps 717 mmHg 28%
    08:00 +35°C° 0 mm 3 mps 718 mmHg 28%
    09:00 +36°C° 0 mm 3 mps 718 mmHg 28%
    10:00 +38°C° 0 mm 4 mps 719 mmHg 28%
    11:00 +39°C° 0 mm 3 mps 718 mmHg 24%
    12:00 +40°C° 0 mm 3 mps 718 mmHg 21%
    13:00 +43°C° 0 mm 3 mps 717 mmHg 18%
    14:00 +43°C° 0 mm 4 mps 717 mmHg 16%
    15:00 +43°C° 0 mm 5 mps 716 mmHg 14%
    16:00 +45°C° 0 mm 5 mps 715 mmHg 12%
    17:00 +43°C° 0 mm 5 mps 716 mmHg 13%
    18:00 +42°C° 0 mm 4 mps 716 mmHg 13%
    19:00 +40°C° 0 mm 3 mps 716 mmHg 14%
    20:00 +39°C° 0 mm 3 mps 716 mmHg 14%
    21:00 +39°C° 0 mm 3 mps 716 mmHg 14%
    22:00 +38°C° 0 mm 4 mps 717 mmHg 14%
    23:00 +37°C° 0 mm 4 mps 717 mmHg 14%

    Day after tomorrow, 25 September, Tuesday

    Time Temperature Precipitation Wind Pressure Humidity
    00:00 +37°C° 0 mm 4 mps 717 mmHg 15%
    01:00 +36°C° 0 mm 4 mps 716 mmHg 16%
    02:00 +35°C° 0 mm 4 mps 716 mmHg 17%
    03:00 +34°C° 0 mm 4 mps 716 mmHg 19%
    04:00 +34°C° 0 mm 4 mps 716 mmHg 21%
    05:00 +33°C° 0 mm 4 mps 716 mmHg 32%
    06:00 +30°C° 0 mm 4 mps 717 mmHg 43%
    07:00 +29°C° 0 mm 4 mps 717 mmHg 54%
    08:00 +32°C° 0 mm 5 mps 718 mmHg 52%
    09:00 +33°C° 0 mm 5 mps 719 mmHg 49%
    10:00 +34°C° 0 mm 5 mps 720 mmHg 47%
    11:00 +36°C° 0 mm 5 mps 719 mmHg 42%
    12:00 +37°C° 0 mm 5 mps 719 mmHg 38%
    13:00 +39°C° 0 mm 5 mps 718 mmHg 33%
    14:00 +39°C° 0 mm 3 mps 717 mmHg 31%
    15:00 +39°C° 0 mm 2 mps 717 mmHg 28%
    16:00 +40°C° 0 mm 1 mps 716 mmHg 25%
    17:00 +39°C° 0 mm 1 mps 716 mmHg 26%
    18:00 +39°C° 0 mm 1 mps 716 mmHg 26%
    19:00 +39°C° 0 mm 1 mps 716 mmHg 27%
    20:00 +37°C° 0 mm 1 mps 717 mmHg 29%
    21:00 +36°C° 0 mm 1 mps 717 mmHg 31%
    22:00 +34°C° 0 mm 0 mps 718 mmHg 33%
    23:00 +36°C° 0 mm 2 mps 717 mmHg 36%

    26 September, Wednesday

    Time Temperature Precipitation Wind Pressure Humidity
    00:00 +35°C° 0 mm 3 mps 717 mmHg 39%
    01:00 +34°C° 0 mm 5 mps 717 mmHg 42%
    02:00 +33°C° 0 mm 5 mps 717 mmHg 46%
    03:00 +32°C° 0 mm 5 mps 717 mmHg 49%
    04:00 +30°C° 0 mm 5 mps 716 mmHg 52%
    05:00 +30°C° 0 mm 4 mps 717 mmHg 52%
    06:00 +30°C° 0 mm 4 mps 717 mmHg 53%
    07:00 +30°C° 0 mm 4 mps 717 mmHg 53%
    08:00 +33°C° 0 mm 4 mps 718 mmHg 48%
    09:00 +35°C° 0 mm 4 mps 718 mmHg 42%
    10:00 +36°C° 0 mm 4 mps 719 mmHg 37%
    11:00 +38°C° 0 mm 4 mps 718 mmHg 32%
    12:00 +39°C° 0 mm 3 mps 718 mmHg 28%
    13:00 +42°C° 0 mm 3 mps 717 mmHg 23%
    14:00 +42°C° 0 mm 3 mps 717 mmHg 20%
    15:00 +43°C° 0 mm 4 mps 716 mmHg 18%
    16:00 +43°C° 0 mm 4 mps 715 mmHg 16%
    17:00 +43°C° 0 mm 3 mps 716 mmHg 16%
    18:00 +41°C° 0 mm 2 mps 716 mmHg 16%
    19:00 +40°C° 0 mm 2 mps 716 mmHg 17%
    20:00 +40°C° 0 mm 2 mps 716 mmHg 16%
    21:00 +39°C° 0 mm 2 mps 716 mmHg 16%
    22:00 +39°C° 0 mm 3 mps 717 mmHg 16%
    23:00 +38°C° 0 mm 3 mps 717 mmHg 17%

    27 September, Thursday

    Time Temperature Precipitation Wind Pressure Humidity
    00:00 +38°C° 0 mm 3 mps 716 mmHg 19%
    01:00 +37°C° 0 mm 3 mps 716 mmHg 21%
    02:00 +36°C° 0 mm 3 mps 716 mmHg 25%
    03:00 +35°C° 0 mm 3 mps 716 mmHg 29%
    04:00 +34°C° 0 mm 3 mps 716 mmHg 33%
    05:00 +33°C° 0 mm 4 mps 716 mmHg 40%
    06:00 +33°C° 0 mm 5 mps 716 mmHg 46%
    07:00 +32°C° 0 mm 5 mps 717 mmHg 52%
    08:00 +33°C° 0 mm 5 mps 717 mmHg 48%
    09:00 +35°C° 0 mm 6 mps 718 mmHg 45%
    10:00 +36°C° 0 mm 6 mps 718 mmHg 41%
    11:00 +39°C° 0 mm 5 mps 718 mmHg 36%
    12:00 +40°C° 0 mm 4 mps 717 mmHg 31%
    13:00 +40°C° 0 mm 3 mps 716 mmHg 25%
    14:00 +41°C° 0 mm 2 mps 716 mmHg 23%
    15:00 +41°C° 0 mm 2 mps 715 mmHg 21%
    16:00 +41°C° 0 mm 1 mps 715 mmHg 18%
    17:00 +41°C° 0 mm 1 mps 715 mmHg 19%
    18:00 +40°C° 0 mm 1 mps 715 mmHg 20%
    19:00 +40°C° 0 mm 1 mps 715 mmHg 20%
    20:00 +39°C° 0 mm 1 mps 715 mmHg 22%
    21:00 +37°C° 0 mm 1 mps 715 mmHg 23%
    22:00 +36°C° 0 mm 1 mps 716 mmHg 24%
    23:00 +36°C° 0 mm 1 mps 715 mmHg 24%

    28 September, Friday

    Time Temperature Precipitation Wind Pressure Humidity
    00:00 +36°C° 0 mm 1 mps 715 mmHg 24%
    01:00 +37°C° 0 mm 2 mps 715 mmHg 25%
    02:00 +36°C° 0 mm 3 mps 715 mmHg 30%
    03:00 +35°C° 0 mm 4 mps 715 mmHg 35%
    04:00 +34°C° 0 mm 6 mps 716 mmHg 40%
    05:00 +33°C° 0 mm 5 mps 716 mmHg 46%
    06:00 +32°C° 0 mm 5 mps 716 mmHg 52%
    07:00 +32°C° 0 mm 5 mps 717 mmHg 58%
    08:00 +33°C° 0 mm 5 mps 717 mmHg 53%
    09:00 +34°C° 0 mm 5 mps 718 mmHg 49%
    10:00 +35°C° 0 mm 6 mps 718 mmHg 44%
    11:00 +37°C° 0 mm 5 mps 718 mmHg 40%
    12:00 +39°C° 0 mm 5 mps 717 mmHg 36%
    13:00 +40°C° 0 mm 4 mps 717 mmHg 32%
    14:00 +39°C° 0 mm 3 mps 716 mmHg 31%
    15:00 +39°C° 0 mm 3 mps 716 mmHg 31%
    16:00 +39°C° 0 mm 2 mps 715 mmHg 30%
    17:00 +38°C° 0.1 mm 3 mps 716 mmHg 32%
    18:00 +38°C° 0.1 mm 3 mps 716 mmHg 34%
    19:00 +37°C° 0.1 mm 4 mps 716 mmHg 35%
    20:00 +37°C° 0.4 mm 4 mps 717 mmHg 38%
    21:00 +36°C° 0.4 mm 4 mps 717 mmHg 41%
    22:00 +35°C° 0.4 mm 4 mps 717 mmHg 44%
    23:00 +34°C° 2 mm 4 mps 717 mmHg 50%
    Show more